CAPE
0 0 0 0 0 0 0 0 1 0 0 1 0 0 1 1 2 1 1 2 6 4 3 1 0 2 14 2 8 8 19 11 3 0 0 1 0 1 0 0 0 1 0
0 0 0 0 0 0 1 0 0 1 1 1 1 1 0 0 1 0 1 3 4 2 1 2 2 3 2 3 0 4 23 1 0 0 0 1 3 3 4 1 0 1 1
0 0 0 0 0 1 2 0 0 0 0 0 1 0 1 1 1 0 1 1 2 3 0 0 4 3 1 2 0 0 8 18 5 0 0 4 3 2 4 1 2 0 0
0 0 0 0 0 0 1 1 0 0 1 1 1 1 2 1 1 1 0 1 0 0 1 0 1 2 2 3 5 5 0 1 9 1 0 0 3 5 2 2 1 0 0
0 0 0 0 0 0 1 1 0 0 1 1 1 0 1 1 1 1 1 1 0 0 0 1 0 1 0 2 0 0 0 1 0 0 0 0 2 2 4 3 1 1 1
0 0 0 0 0 0 0 1 0 0 0 0 0 1 0 1 2 2 1 1 1 1 0 0 0 0 0 0 0 0 0 3 0 0 0 0 1 1 3 1 1 0 0
0 0 0 0 0 0 0 2 1 0 0 0 1 0 0 0 2 1 1 0 0 0 0 1 0 0 0 0 0 0 0 0 0 0 0 0 0 4 1 3 1 0 0
0 0 0 0 0 0 0 2 2 1 1 2 1 0 1 0 0 4 1 0 0 1 0 0 0 0 0 0 0 0 0 0 0 0 0 0 0 2 0 2 1 1 0
0 0 0 0 0 0 0 0 2 3 2 3 2 1 1 1 0 0 1 1 0 1 1 1 1 1 4 2 0 0 1 3 3 2 2 2 3 2 0 0 1 0 1
0 0 0 0 0 0 0 0 0 2 1 2 2 2 2 0 2 1 0 0 1 1 1 0 1 3 4 1 0 2 0 2 4 3 2 2 3 4 2 1 1 0 0
0 0 0 0 0 0 0 0 0 0 0 0 0 0 0 2 1 1 1 1 0 1 1 1 1 3 4 5 2 0 0 2 4 3 2 0 0 0 0 0 0 0 0
0 0 0 0 0 0 0 0 0 0 0 0 0 0 0 0 0 3 4 3 1 1 0 0 0 1 2 3 2 2 3 1 2 3 0 0 0 0 0 0 0 0 0
0 0 0 0 0 0 0 0 0 0 0 0 0 0 0 0 0 0 0 0 1 1 1 2 3 4 3 1 2 2 0 1 1 0 0 0 0 0 0 0 0 0 0
0 0 0 0 0 0 0 0 0 0 0 0 0 0 0 0 0 0 0 0 0 0 0 0 0 0 0 0 0 0 0 0 0 0 0 0 0 0 0 0 0 0 0
0 0 0 0 0 0 0 0 0 0 0 0 0 0 0 0 0 0 0 0 0 0 0 0 0 0 0 0 0 0 0 0 0 0 0 0 0 0 0 0 0 0 0
0 0 0 0 0 0 0 0 0 0 0 0 0 0 0 0 0 0 0 0 0 0 0 0 0 0 0 0 0 0 0 0 0 0 0 0 0 0 0 0 0 0 0
0 0 0 0 0 0 0 0 0 0 0 0 0 0 0 0 0 0 0 0 0 0 0 0 0 0 0 0 0 0 0 0 0 0 0 0 0 0 0 0 0 0 0
0 0 0 0 0 0 0 0 0 0 0 0 0 0 0 0 0 0 0 0 0 0 0 0 0 0 0 0 0 0 0 0 0 0 0 0 0 0 0 0 0 0 0
0 0 0 0 0 0 0 0 0 0 0 0 0 0 0 0 0 0 0 0 0 0 0 0 0 0 0 0 0 0 0 0 0 0 0 0 0 0 0 0 0 0 0
0 0 0 0 0 0 0 0 0 0 0 0 0 0 0 0 0 1 0 0 0 0 0 0 0 0 0 0 0 0 0 0 0 0 0 0 0 0 0 0 0 0 0
0 0 0 0 0 0 0 0 0 0 0 0 0 0 0 0 0 0 0 0 0 0 0 0 1 0 0 0 0 0 0 0 0 0 0 0 0 0 0 0 0 0 0
0 0 0 0 0 0 0 0 0 0 0 0 0 0 0 0 0 1 0 0 1 1 1 0 0 0 1 1 0 1 1 0 2 0 0 0 0 0 0 0 0 0 0
0 0 0 0 0 0 0 0 0 0 0 0 0 0 0 0 1 0 0 0 0 0 2 0 0 0 1 0 1 0 0 0 0 0 0 0 0 0 0 0 0 0 0
0 0 0 0 0 0 0 0 0 0 0 0 0 0 0 0 0 0 0 0 0 0 0 0 0 0 0 0 1 0 0 0 0 0 0 0 0 0 0 0 0 0 0
1 1 0 0 0 0 0 0 0 0 0 0 0 0 0 0 0 0 0 0 0 0 0 0 0 0 0 0 0 0 0 0 0 0 0 0 0 0 0 0 0 0 0
1 0 0 0 0 0 0 0 0 0 0 0 0 0 0 0 0 0 0 0 0 0 0 0 0 0 0 0 0 0 0 0 0 0 0 0 0 0 0 0 0 0 0
CIN
-0 -0 -0 -0 -0 -0 -0 -0 -0 -0 -0 -0 -0 -0 -0 -0 -0 -0 -0 -0 -0 -0 -0 -0 -0 -0 -0 -0 -19 -0 -0 -9 -0 -0 -0 -0 -0 -0 -0 -0 -0 -0 -0
-0 -0 -0 -0 -0 -0 -0 -0 -0 -0 -0 -0 -0 -0 -0 -0 -0 -0 -0 -0 -0 -0 -0 -0 -0 -0 -0 -2 -1 -0 -0 -4 -3 -0 -0 -0 -0 -0 -0 -0 -0 -0 -0
-0 -0 -0 -0 -0 -0 -0 -0 -0 -0 -0 -0 -0 -0 -0 -0 -0 -0 -0 -0 -0 -0 -0 -0 -0 -2 -0 -0 -0 -0 -0 -1 -1 -0 -0 -0 -0 -0 -0 -0 -0 -0 -0
-0 -0 -0 -0 -0 -0 -0 -0 -0 -0 -0 -0 -0 -0 -0 -0 -0 -0 -0 -0 -0 -0 -0 -0 -0 -0 -0 -0 -3 -3 -0 -0 -13 -11 -0 -0 -0 -0 -0 -0 -0 -0 -0
-0 -0 -0 -0 -0 -0 -0 -0 -0 -0 -0 -0 -0 -0 -0 -0 -0 -0 -0 -0 -0 -0 -0 -0 -0 -0 -1 -1 -0 -0 -0 -0 -0 -0 -0 -0 -0 -0 -0 -0 -0 -0 -0
-0 -0 -0 -0 -0 -0 -0 -0 -0 -0 -0 -0 -0 -0 -0 -0 -0 -0 -0 -0 -0 -0 -0 -0 -0 -0 -0 -0 -0 -0 -0 -0 -0 -0 -0 -0 -0 -0 -0 -0 -0 -0 -0
-0 -0 -0 -0 -0 -0 -0 -0 -0 -0 -1 -0 -0 -0 -0 -0 -0 -0 -0 -0 -0 -0 -0 -0 -0 -0 -0 -0 -0 -0 -0 -0 -0 -0 -0 -0 -0 -0 -0 -0 -0 -0 -0
-0 -0 -0 -0 -0 -0 -0 -0 -0 -0 -0 -0 -0 -0 -0 -0 -0 -0 -0 -0 -0 -0 -0 -0 -0 -0 -0 -0 -0 -0 -0 -0 -0 -0 -0 -0 -0 -0 -0 -0 -0 -0 -0
-0 -0 -0 -0 -0 -0 -0 -0 -0 -0 -0 -0 -0 -0 -0 -0 -0 -0 -0 -0 -0 -0 -0 -0 -0 -0 -0 -0 -0 -0 -0 -0 -0 -0 -0 -0 -0 -0 -0 -0 -0 -0 -0
-0 -0 -0 -0 -0 -0 -0 -0 -0 -0 -0 -0 -0 -0 -0 -0 -0 -0 -0 -0 -0 -0 -0 -0 -0 -0 -0 -0 -0 -0 -0 -0 -0 -0 -0 -0 -0 -0 -0 -0 -0 -0 -0
-0 -0 -0 -0 -0 -0 -0 -0 -0 -0 -0 -0 -0 -0 -0 -0 -0 -0 -0 -0 -0 -0 -0 -0 -0 -0 -0 -0 -0 -0 -0 -0 -0 -0 -0 -0 -0 -0 -0 -0 -0 -0 -0
-0 -0 -0 -0 -0 -0 -0 -0 -0 -0 -0 -0 -0 -0 -0 -0 -0 -0 -0 -0 -0 -0 -0 -0 -0 -0 -0 -0 -0 -0 -0 -0 -0 -0 -0 -0 -0 -0 -0 -0 -0 -0 -0
-0 -0 -0 -0 -0 -0 -0 -0 -0 -0 -0 -0 -0 -0 -0 -0 -0 -0 -0 -0 -0 -0 -0 -0 -0 -0 -0 -0 -0 -0 -0 -0 -0 -0 -0 -0 -0 -0 -0 -0 -0 -0 -0
-0 -0 -0 -0 -0 -0 -0 -0 -0 -0 -0 -0 -0 -0 -0 -0 -0 -0 -0 -0 -0 -0 -0 -0 -0 -0 -0 -0 -0 -0 -0 -0 -0 -0 -0 -0 -0 -0 -0 -0 -0 -0 -0
-0 -0 -0 -0 -0 -0 -0 -0 -0 -0 -0 -0 -0 -0 -0 -0 -0 -0 -0 -0 -0 -0 -0 -0 -0 -0 -0 -0 -0 -0 -0 -0 -0 -0 -0 -0 -0 -0 -0 -0 -0 -0 -0
-0 -0 -0 -0 -0 -0 -0 -0 -0 -0 -0 -0 -0 -0 -0 -0 -0 -0 -0 -0 -0 -0 -0 -0 -0 -0 -0 -0 -0 -0 -0 -0 -0 -0 -0 -0 -0 -0 -0 -0 -0 -0 -0
-0 -0 -0 -0 -0 -0 -0 -0 -0 -0 -0 -0 -0 -0 -0 -0 -0 -0 -0 -0 -0 -0 -0 -0 -0 -0 -0 -0 -0 -0 -0 -0 -0 -0 -0 -0 -0 -0 -0 -0 -0 -0 -0
-0 -0 -0 -0 -0 -0 -0 -0 -0 -0 -0 -0 -0 -0 -0 -0 -0 -0 -0 -0 -0 -0 -0 -0 -0 -0 -0 -0 -0 -0 -0 -0 -0 -0 -0 -0 -0 -0 -0 -0 -0 -0 -0
-0 -0 -0 -0 -0 -0 -0 -0 -0 -0 -0 -0 -0 -0 -0 -0 -0 -0 -0 -0 -0 -0 -0 -0 -0 -0 -0 -0 -0 -0 -0 -0 -0 -0 -0 -0 -0 -0 -0 -0 -0 -0 -0
-0 -0 -0 -0 -0 -0 -0 -0 -0 -0 -0 -0 -0 -0 -0 -0 -0 -0 -0 -0 -0 -0 -0 -0 -0 -0 -0 -0 -0 -0 -0 -0 -0 -0 -0 -0 -0 -0 -0 -0 -0 -0 -0
-0 -0 -0 -0 -0 -0 -0 -0 -0 -0 -0 -0 -0 -0 -0 -0 -0 -0 -0 -0 -0 -0 -0 -0 -0 -0 -0 -0 -0 -0 -0 -0 -0 -0 -0 -0 -0 -0 -0 -0 -0 -0 -0
-0 -0 -0 -0 -0 -0 -0 -0 -0 -0 -0 -0 -0 -0 -0 -0 -0 -0 -0 -0 -0 -0 -0 -0 -0 -0 -0 -0 -0 -0 -0 -0 -0 -0 -0 -0 -0 -0 -0 -0 -0 -0 -0
-0 -0 -0 -0 -0 -0 -0 -0 -0 -0 -0 -0 -0 -0 -0 -0 -0 -0 -0 -0 -0 -0 -0 -0 -0 -0 -0 -0 -0 -0 -0 -0 -0 -0 -0 -0 -0 -0 -0 -0 -0 -0 -0
-0 -0 -0 -0 -0 -0 -0 -0 -0 -0 -0 -0 -0 -0 -0 -0 -0 -0 -0 -0 -0 -0 -0 -0 -0 -0 -0 -0 -0 -0 -0 -0 -0 -0 -0 -0 -0 -0 -0 -0 -0 -0 -0
-0 -0 -0 -0 -0 -0 -0 -0 -0 -0 -0 -0 -0 -0 -0 -0 -0 -0 -0 -0 -0 -0 -0 -0 -0 -0 -0 -0 -0 -0 -0 -0 -0 -0 -0 -0 -0 -0 -0 -0 -0 -0 -0
-0 -0 -0 -0 -0 -0 -0 -0 -0 -0 -0 -0 -0 -0 -0 -0 -0 -0 -0 -0 -0 -0 -0 -0 -0 -0 -0 -0 -0 -0 -0 -0 -0 -0 -0 -0 -0 -0 -0 -0 -0 -0 -0
Wind_Speed
31 33 34 36 38 37 35 32 26 28 31 31 31 28 27 28 29 32 33 34 34 36 38 42 49 46 49 48 45 42 48 50 52 39 37 41 43 44 46 49 44 39 39
30 31 33 35 38 37 34 30 27 29 29 30 28 23 24 25 25 27 30 28 27 30 32 38 44 46 47 45 49 47 45 46 53 48 41 37 38 40 40 43 42 40 42
28 30 33 35 36 36 35 32 32 28 28 33 29 24 25 26 25 23 22 20 20 21 27 35 36 38 43 44 45 43 41 43 47 49 45 37 36 33 33 33 32 32 31
26 29 30 33 34 34 32 32 31 29 30 34 27 27 25 26 26 21 15 12 10 11 15 31 33 36 41 40 42 47 44 43 44 45 42 39 35 32 32 31 30 25 23
25 26 28 29 30 31 28 29 31 30 32 26 22 18 20 24 22 17 7 4 4 6 6 6 28 35 36 37 37 42 44 45 40 42 41 43 41 34 33 28 24 20 19
22 23 25 29 32 34 30 33 33 32 29 27 24 21 19 21 13 11 6 4 4 6 12 21 26 35 35 36 39 42 42 43 42 42 40 41 39 32 25 26 24 22 23
18 19 24 27 31 33 32 33 35 37 34 28 25 23 17 13 11 18 14 10 8 8 12 18 23 29 35 36 37 37 37 39 38 37 35 33 31 31 26 27 27 25 24
14 17 21 21 23 24 28 34 34 32 35 24 26 21 20 18 20 25 24 17 13 10 10 15 20 26 30 28 19 20 21 24 27 27 27 24 23 22 22 20 20 18 14
10 13 16 17 19 20 25 31 31 32 36 34 33 29 27 27 8 15 18 21 21 18 19 19 21 21 5 6 14 14 15 16 12 11 10 8 5 7 8 11 20 19 21
7 9 10 14 15 15 15 20 23 29 30 33 36 36 38 34 31 28 23 22 23 21 22 26 25 23 17 10 4 4 6 7 5 3 3 5 6 5 9 12 13 17 15
7 7 7 11 11 11 10 13 16 21 25 27 31 34 38 28 30 38 38 33 26 30 29 30 28 25 22 20 12 10 8 4 5 4 4 7 8 8 9 10 9 9 11
9 8 7 9 11 12 14 14 17 19 20 21 23 27 25 24 27 27 29 40 38 38 31 35 31 26 23 19 19 17 12 9 8 6 6 7 7 8 5 3 4 6 10
9 9 10 10 11 13 16 17 19 20 22 22 23 23 23 24 22 24 27 29 32 31 29 30 27 29 31 24 25 23 18 16 16 14 11 8 6 4 3 3 6 9 8
9 9 10 9 10 12 14 17 18 19 20 21 21 22 19 19 19 19 21 24 26 29 29 31 33 34 35 34 33 33 31 22 24 17 16 16 22 20 18 17 14 12 10
4 4 6 7 7 9 12 15 16 17 17 18 19 20 21 24 25 23 24 25 26 26 27 28 30 30 30 29 29 27 26 25 25 23 21 20 18 16 13 12 11 10 9
2 1 1 2 4 5 8 11 15 15 16 18 20 20 20 21 23 25 25 25 24 24 24 25 25 25 24 23 23 22 21 20 18 17 16 15 13 12 11 10 11 11 10
7 6 5 4 4 4 5 7 9 11 14 16 17 18 19 20 20 22 23 23 24 21 22 22 21 21 20 20 19 18 17 17 16 15 13 12 11 11 11 11 11 12 13
12 10 9 7 6 7 8 9 11 12 13 14 15 17 19 19 19 20 21 20 21 21 20 20 19 18 18 18 18 17 16 15 14 13 12 11 11 10 11 12 13 14 14
15 14 13 13 12 12 12 13 13 14 15 16 17 17 18 19 20 19 21 21 21 20 20 19 18 18 17 16 15 15 14 14 13 13 13 12 12 13 14 14 15 16 17
17 17 16 15 15 15 15 16 16 16 17 17 18 18 18 19 20 21 21 20 20 20 20 19 18 18 17 17 17 17 16 16 16 15 15 14 14 14 15 15 16 18 20
18 18 18 19 18 18 18 19 19 19 19 19 19 18 18 20 22 21 20 19 19 18 18 17 18 19 19 18 18 18 19 19 18 17 17 17 16 17 18 19 21 22 23
18 19 19 20 20 20 21 20 20 21 22 21 21 20 19 21 22 22 22 21 20 20 20 20 20 20 20 19 20 21 21 21 20 19 19 19 19 20 20 22 23 23 23
18 19 20 20 21 22 23 23 23 23 23 23 23 22 22 23 23 23 24 23 22 21 21 21 22 22 22 22 21 21 23 24 23 22 21 21 21 21 22 23 24 24 24
20 20 21 21 22 22 22 23 25 25 25 26 26 25 25 24 24 25 25 24 23 22 23 23 24 25 25 25 24 23 24 24 24 23 22 22 23 23 23 25 25 25 26
20 21 21 22 22 23 24 25 25 26 26 25 27 28 28 27 27 26 25 25 24 24 25 25 26 26 26 26 25 25 25 24 23 23 23 23 24 24 24 25 26 25 25
20 20 20 21 23 23 23 24 25 25 26 26 25 26 25 25 25 25 25 25 25 25 26 26 27 27 27 26 26 26 26 25 25 24 24 24 25 25 25 25 25 24 24
Wind_Direction
350 350 348 347 345 343 342 342 342 338 332 329 326 324 321 317 312 307 301 297 288 285 282 279 272 269 263 257 259 260 252 252 254 260 260 257 259 260 259 260 264 264 263
354 354 354 353 351 351 351 350 350 345 341 337 333 329 325 323 319 311 308 300 288 287 284 281 274 264 261 257 252 258 255 252 251 253 257 261 263 262 263 264 266 269 267
358 358 358 357 357 359 358 355 351 353 351 344 341 338 334 331 327 316 311 303 290 288 290 283 276 263 256 254 252 255 256 257 249 250 253 258 262 264 265 271 273 275 280
2 3 5 3 5 5 6 4 0 0 358 352 353 347 346 343 339 331 313 306 284 279 291 284 276 260 255 253 254 250 256 259 249 247 248 250 264 268 267 269 273 281 282
7 9 10 11 13 14 17 16 12 10 6 10 10 10 6 0 359 355 337 316 284 230 233 224 274 257 254 253 256 251 253 253 249 245 248 249 255 262 263 269 276 278 285
13 17 16 15 15 16 23 22 20 17 20 23 25 28 25 21 8 7 51 80 143 178 196 203 208 225 252 255 251 246 248 251 244 245 250 253 253 258 262 262 266 271 275
22 24 21 20 17 18 25 27 26 18 24 36 41 41 40 38 33 51 75 102 122 154 185 197 201 207 234 239 244 246 252 249 245 246 250 255 254 254 258 260 262 269 274
31 31 27 31 32 35 34 30 34 38 34 48 48 50 51 55 56 55 60 82 96 117 153 178 189 204 217 231 254 256 251 248 248 255 261 261 262 263 261 262 259 265 275
44 41 38 41 42 44 41 35 40 43 38 45 49 52 55 55 11 72 76 76 87 99 104 122 129 124 357 288 249 245 252 261 270 277 278 275 267 269 257 257 257 256 265
64 59 59 53 55 56 57 56 56 53 54 53 49 51 46 56 4 5 77 86 88 95 95 88 93 104 65 47 6 270 302 267 274 292 343 336 325 317 295 283 263 257 263
84 87 90 73 76 81 86 80 74 66 63 64 63 62 56 30 12 24 34 64 85 75 80 69 78 64 56 57 42 45 52 47 30 19 353 339 329 318 318 303 288 263 258
143 146 135 113 103 96 88 86 81 76 74 74 72 70 73 76 76 78 59 52 44 55 37 56 48 42 42 41 46 50 42 29 29 21 359 323 305 322 11 335 314 306 297
140 145 151 142 118 93 78 73 71 70 70 71 73 75 77 77 82 81 81 82 84 90 95 98 99 98 51 44 48 50 47 48 54 56 54 49 36 33 15 355 20 37 24
147 142 141 131 105 81 69 63 65 66 65 68 71 71 79 82 83 84 85 86 88 86 90 88 86 86 86 85 88 87 75 54 66 56 57 61 84 79 76 80 70 59 45
146 117 117 110 92 68 55 50 51 53 59 60 60 61 63 58 60 70 71 72 73 75 76 73 65 63 63 63 63 61 63 67 70 70 72 75 72 66 56 54 53 25 20
246 227 132 76 61 54 42 34 28 32 35 34 31 38 42 45 42 39 42 46 48 52 47 45 45 45 44 47 49 49 47 49 49 51 50 46 45 47 42 30 16 6 359
253 281 297 310 330 348 2 7 10 15 14 15 16 19 19 20 22 19 22 24 25 35 29 28 27 23 23 22 22 23 26 28 28 29 29 29 26 21 10 2 355 350 344
257 273 278 286 296 311 320 330 339 344 349 356 359 360 358 4 7 8 6 10 9 11 14 13 13 13 12 11 10 11 13 14 11 13 12 9 6 360 352 346 341 337 333
255 266 275 287 292 299 307 314 320 325 330 336 341 344 346 347 348 352 352 351 352 355 357 357 359 1 2 3 4 4 4 2 2 359 356 353 350 344 338 334 330 326 323
263 266 270 277 286 291 297 301 307 312 317 321 324 329 336 338 337 337 339 342 344 346 348 347 347 348 348 345 344 342 340 339 337 337 336 336 334 330 328 325 322 319 315
267 267 267 276 279 283 289 294 300 304 308 312 316 321 325 328 329 331 334 335 336 338 339 341 338 335 335 333 331 329 327 325 324 325 324 323 323 320 320 319 316 314 315
272 270 268 271 279 283 286 290 295 299 302 306 311 314 315 318 321 324 325 328 330 331 333 333 332 331 328 328 323 319 318 316 317 316 315 315 315 314 314 313 313 312 311
279 274 273 273 277 283 286 291 293 296 300 303 306 309 310 310 313 316 318 320 323 325 329 329 328 327 326 325 324 322 317 315 315 314 313 312 311 311 310 310 310 310 310
286 281 277 276 279 282 285 289 293 295 298 300 302 304 306 309 310 311 312 314 317 321 324 326 325 323 322 321 321 321 317 315 314 313 311 310 309 308 309 309 310 310 310
297 292 288 285 284 286 289 292 294 296 299 301 302 303 305 307 308 311 313 315 317 318 320 324 324 323 322 322 321 321 318 317 315 314 313 310 309 309 309 309 310 311 312
306 303 299 296 295 295 295 297 298 301 302 304 306 308 311 311 313 314 316 316 316 318 320 322 322 322 323 322 322 320 319 318 317 315 314 313 311 311 311 311 312 313 314